Regional Weather Roundup
Issued by NWS

Home | Current Version | Previous Version | Graphics & Text | Print | Product List | Glossary Off
Versions: 1 2 3 4 5 6 7 8 9 10 11 12 13 14 15 16 17 18 19 20 21 22 23 24 25 26 27 28 29 30 31 32 33 34 35 36 37 38 39 40 41 42 43 44 45 46 47 48 49 50

631
ASUS43 KTOP 120308
RWRKS

WEATHER ROUNDUP FOR KANSAS
NATIONAL WEATHER SERVICE GOODLAND KS
900 PM CST THU FEB 11 2016

NOTE:  "FAIR" INDICATES FEW OR NO CLOUDS BELOW 12,000 FEET WITH NO
SIGNIFICANT WEATHER AND/OR OBSTRUCTIONS TO VISIBILITY.

KSZ001>006-013>018-027>032-041>047-120400-
NORTHWEST KANSAS

CITY           SKY/WX    TMP DP  RH WIND       PRES   REMARKS
GOODLAND       CLEAR     33  27  78 W6        30.21R
HAYS           CLOUDY    34  21  60 CALM      30.16R
HILL CITY      CLOUDY    33  30  88 W6        30.16R
RUSSELL        CLOUDY    33  29  85 S10       30.13S WCI  25
$$

KSZ061>065-074>080-084>089-120400-
SOUTHWEST KANSAS

CITY           SKY/WX    TMP DP  RH WIND       PRES   REMARKS
DODGE CITY     CLOUDY    41  29  62 SW6       30.18R
ELKHART          N/A     52  20  28 W3          N/A
GARDEN CITY    CLOUDY    38  26  62 N13       30.17R WCI  30
GREAT BEND     CLOUDY    37  25  60 E6        30.16R
LIBERAL        CLOUDY    46  25  42 W12G29    30.15R
PRATT          CLOUDY    36  27  69 CALM      30.15R
$$

KSZ066>073-081>083-090>101-120400-
SOUTHEAST KANSAS

CITY           SKY/WX    TMP DP  RH WIND       PRES   REMARKS
CHANUTE        PTCLDY    36  24  62 E3        30.18S
COFFEYVILLE    CLEAR     32  24  72 N6        30.19R
HUTCHINSON     CLOUDY    31  24  75 CALM      30.17R
MEDICINE LODGE   N/A     35  29  78 CALM      30.16R
NEWTON         CLOUDY    37  21  52 SW3       30.18F
PARSONS        CLEAR     34  25  69 CALM      30.19R
WICHITA INTL   PTCLDY    38  26  62 NE3       30.18R
WICHITA JABRA  CLEAR     37  25  61 NW3       30.19R
WICHITA MCCONL CLEAR     38  25  60 NE3       30.18R
WINFIELD       CLEAR     32  23  69 CALM      30.19R
$$

KSZ007>012-019>026-033>040-048>060-102>105-120400-
NORTHEAST KANSAS

CITY           SKY/WX    TMP DP  RH WIND       PRES   REMARKS
CONCORDIA      CLOUDY    30  25  81 CALM      30.15S
EMPORIA        CLOUDY    33  23  66 CALM      30.19R
LAWRENCE       MOCLDY    34  24  67 CALM      30.19F
MANHATTAN      CLOUDY    32  25  75 CALM      30.17F
MARYSVILLE     PTCLDY    32  27  80 CALM      30.16S
OLATHE IND     CLOUDY    34  23  64 CALM      30.18F
OLATHE EXE     CLOUDY    33  21  61 E3        30.19F
SALINA         CLOUDY    33  24  69 S3        30.17S
TOPEKA BILLARD MOCLDY    36  24  62 S3        30.18F
TOPEKA FORBES  MOCLDY    35  24  64 S5        30.17F
$$




USA.gov is the U.S. government's official web portal to all federal, state and local government web resources and services.